Showing default

CHINASAT 1C, 41103

Orbit data source: Space-Track

CHINASAT 1C, 41103 is a payload satellite owned by PLA GAD (CN) in GEO that was launched on Wed, 09 Dec 2015 UTC via a CHANG ZHENG 3B launch vehicle from the Xichang Space Center, China (XSC). Payload-class satellites include a variety of spacecraft equipped with specific instruments for various scientific and technological missions. These include communications satellites like Starlink; space stations such as the ISS; scientific satellites like the Hubble; Earth observation satellites from companies like Planet Labs, Umbra, and HawkEye 360; GPS; miniature CubeSats for education and research; and military/defense satellites.

Not visible in the next 10 days
Identifier
41103, 2015-073A
Orbit
GEO
Country
Flag of CNCN / PRC
Related business
Manufacturer
CAST?
Mission
Non-operational Defense Communications
Bus & Motor
DFH-4?, DFH-4 LAE
Mass
~5,000 kg wet, ~2,500 kg dry
Launch date (UTC)
2015-12-09 (11 years ago)
Launch vehicle
CHANG ZHENG 3B
Launch site
Xichang Space Center, China (XSC)
Object type
Payload
Rocket body
Debris
Shape & HBR
Box + 2 Pan, 15.0 m
Radar Cross Section
34.063 m², Large (>1 m²)

Expand to show TLE details & history
Last TLE update: 1 day ago

TLE from 1 day ago
0 CHINASAT 1C
1 41103U 15073A   26172.38870900 -.00000200  00000-0  00000+0 0  9990
2 41103   7.1139  68.9043 0004877 180.1408 153.5368  0.99170850 38584
Epoch: 2026-06-21T09:19Z
TLE epoch observation values (Epoch: 2026-06-21T09:19:44.457Z)
Latitude
-3.1387°
Longitude
-6.72816°
Altitude
36,116.643 km
Speed
3.062 km/s
True Right ascension
02h 51m 11s
True Declination
-3° 08' 08"
Sunlit
Object was in daylight at epoch
Visualization orbit readout
Latitude
Unknown
Longitude
Unknown
Altitude
Unknown
Speed
Unknown
Apparent Right ascension
Unknown
Apparent Declination
Unknown
Sunlit
N/A
Visualization observer readout
Local Sidereal Time
21:36:04
Azimuth
Unknown
Elevation
Unknown
Doppler factor
Unknown
Orbital elements
Apogee altitude
36,119.834 km
Perigee altitude
36,078.402 km
Semi-major axis
42,477.255 km
Eccentricity
0.00049
Inclination
7.1139°
RAAN
68.9043°
Arg. of periapsis
180.1408°
True anomaly
153.56169°
Mean anomaly
153.5368°
Eccentric anomaly
153.54925°
Mean motion
0.24792 °/min
Orbital period
1,452.09 mins
BSTAR
0
Loading maneuver chart data...
Computing Atmospheric mass density...
Loading historical data...
Loading historical data...
Loading historical data...
Loading historical data...
Loading historical data...
Loading historical data...
Loading historical data...
Other satellites on launch #73 in the year 2015 (2015-12-09 UTC)

Documentation

Showing up to 5 results
|